{"data":{"norad_id":60458,"intl_designator":"2024-148A","name":"YAOGAN-43 01A","alt_names":[],"object_type":"PAYLOAD","status":"ACTIVE","operator":null,"country":"PRC","launch_date":"2024-08-16","launch_site_code":"XICLF","launch_vehicle":null,"mission":null,"orbit_class":"UNKNOWN","rcs_meters":null,"size_class":null,"mass_kg":null,"dimensions":null,"purposes":[],"wikipedia_slug":null,"has_3d_model":false,"image_url":null,"decayed_at":null,"tle_current":{"epoch":"2026-09-22T23:46:37.069248Z","epoch_age_seconds":71086,"freshness":"FRESH","line1":"1 60458U 24148A   26265.99070682  .00012375  00000+0  32030-3 0  9992","line2":"2 60458  35.0036 230.3629 0002606   8.3155 351.7607 15.38225835117508","mean_motion":15.38225835,"eccentricity":0.0002606,"inclination_deg":35.0036,"raan_deg":230.3629,"arg_perigee_deg":8.3155,"mean_anomaly_deg":351.7607,"bstar":0.0003203,"rev_number":11750,"period_min":93.614342395959,"perigee_km":449.57586150271,"apogee_km":453.13539306005,"semimajor_km":6829.4926272814,"source":"CELESTRAK","updated_at":"2026-09-23T09:00:20.616858Z"}}}